ARIANE 5 R/B, 43634

Orbit data source: Space-Track

ARIANE 5 R/B, 43634 is space debris in HEO originally from a launch on Tue, 25 Sep 2018 UTC launched from the French Guiana (FRGUI). Debris objects in space refer to the collection of defunct objects orbiting the Earth. Examples of debris include non-operational satellites, rocket bodies, and fragments generated from explosions, collisions, or faulty payload assembly.

Loading next visibility...
Identifier
43634, 2018-074C
Orbit
HEO
Country
Flag of FRFR
Related business
Manufacturer
ArianeGroup
Mission
Spacecraft
Bus & Motor
ESC-A, Unknown motor
Mass
~5,000 kg wet, ~5,000 kg dry
Launch date (UTC)
2018-09-25 (7 years ago)
Launch vehicle
Unknown
Launch site
French Guiana (FRGUI)
Object type
Payload
Rocket body
Debris
Shape & HBR
Cyl + 1 Nozzle, 3.5 m
Radar Cross Section
41.627 m², Large (>1 m²)

Expand to show TLE details & history
Last TLE update: 1 day ago

TLE from 1 day ago
0 ARIANE 5 R/B
1 43634U 18074C   26071.53629874  .00004363  00000-0  11582-2 0  9995
2 43634   5.9440  80.3395 7152713 331.2685   3.3584  2.44252235 63973
Epoch: 2026-03-12T12:52Z
TLE epoch observation values (Epoch: 2026-03-12T12:52:16.211Z)
Latitude
0.00014°
Longitude
77.20537°
Altitude
628.51 km
Speed
9.831 km/s
True Right ascension
05h 21m 49s
True Declination
0° 00' 00"
Sunlit
Object was in daylight at epoch
Visualization orbit readout
Latitude
Unknown
Longitude
Unknown
Altitude
Unknown
Speed
Unknown
Apparent Right ascension
Unknown
Apparent Declination
Unknown
Sunlit
N/A
Visualization observer readout
Local Sidereal Time
20:21:26
Azimuth
Unknown
Elevation
Unknown
Doppler factor
Unknown
Orbital elements
Apogee altitude
33,580.52 km
Perigee altitude
254.853 km
Semi-major axis
23,295.823 km
Eccentricity
0.71527
Inclination
5.944°
RAAN
80.3395°
Arg. of periapsis
331.2685°
True anomaly
27.99032°
Mean anomaly
3.3584°
Eccentric anomaly
11.59659°
Mean motion
0.61042 °/min
Orbital period
589.76 mins
BSTAR
0.0011582
Loading maneuver chart data...
Computing Atmospheric mass density...
Loading historical data...
Loading historical data...
Loading historical data...
Loading historical data...
Loading historical data...
Loading historical data...
Loading historical data...
Other satellites on launch #74 in the year 2018 (2018-09-25 UTC)

Documentation

Showing up to 5 results
|